This demonstration page uses our WeatherBlox Daily Observations layout. Learn more.

Hourly Observations for November 11, 2019

Temp ( °F °C ) Dew Point ( °F °C ) Humidity (%) Winds ( mph kmh ) Pressure ( in mb ) Visibility ( mi km ) Precip ( " mm )
12:15 am 00:15 Cloudy 23 -5 18 -7.6 82 82 N 24 39 30.51 1033 10 16.0934 0 0
12:35 am 00:35 Cloudy 22 -5.3 17 -8.2 80 80 N 29 46 30.52 1033 10 16.0934 0 0
12:55 am 00:55 Cloudy 22 -5.7 17 -8.6 80 80 N 24 39 30.53 1034 10 16.0934 0 0
1:15 am 01:15 Windy with Snow Likely 21 -6 16 -8.8 81 81 N 25 41 30.54 1034 5 8.0467 0 0
1:35 am 01:35 Windy with Snow Likely 20 -6.6 17 -8.5 87 87 N 23 37 30.55 1035 1.5 2.41401 0 0
1:55 am 01:55 Windy with Snow Likely 19 -7.1 17 -8.6 89 89 N 24 39 30.57 1035 1.75 2.816345 0 0
2:15 am 02:15 Windy with Snow Likely 19 -7.2 17 -8.4 91 91 N 21 33 30.59 1036 2.5 4.02335 0 0
2:35 am 02:35 Cloudy with Light Snow 19 -7.5 16 -8.8 91 91 N 16 26 30.61 1037 4 6.43736 0 0
2:55 am 02:55 Windy with Snow Likely 18 -7.6 15 -9.5 86 86 N 25 41 30.62 1037 7 11.26538 0 0
3:15 am 03:15 Windy with Snow Likely 18 -7.8 15 -9.5 88 88 N 23 37 30.63 1037 7 11.26538 0 0
3:35 am 03:35 Windy with Snow Likely 17 -8.1 14 -10 86 86 N 24 39 30.65 1038 3 4.82802 0 0
3:55 am 03:55 Windy with Snow Likely 17 -8.3 15 -9.7 90 90 N 24 39 30.66 1038 2 3.21868 0 0
4:15 am 04:15 Windy with Snow Likely 17 -8.6 14 -10.1 89 89 N 22 35 30.67 1039 2 3.21868 0 0
4:35 am 04:35 Windy with Snow Likely 17 -8.6 14 -10 90 90 N 22 35 30.66 1038 5 8.0467 0 0
4:55 am 04:55 Cloudy with Light Snow 16 -8.7 14 -10 90 90 N 18 30 30.67 1039 3 4.82802 0 0
5:15 am 05:15 Cloudy with Light Snow 17 -8.6 14 -9.8 91 91 N 15 24 30.68 1039 3 4.82802 0 0
5:35 am 05:35 Windy with Snow Likely 17 -8.6 14 -10 90 90 N 20 31 30.69 1039 3 4.82802 0 0
5:55 am 05:55 Cloudy with Light Snow 17 -8.6 14 -10 90 90 N 18 30 30.71 1040 2.5 4.02335 0 0
6:15 am 06:15 Windy with Snow Likely 16 -8.7 13 -10.5 87 87 N 21 33 30.72 1040 7 11.26538 0 0
6:35 am 06:35 Cloudy 16 -8.7 13 -10.7 86 86 N 18 30 30.74 1041 10 16.0934 0 0
6:55 am 06:55 Cloudy 17 -8.6 12 -11 83 83 N 20 31 30.75 1041 10 16.0934 0 0
7:15 am 07:15 Cloudy 17 -8.6 12 -11.2 82 82 N 15 24 30.75 1041 10 16.0934 0 0
7:35 am 07:35 Windy with Snow Likely 16 -9 12 -11.3 84 84 N 22 35 30.77 1042 5 8.0467 0 0
7:55 am 07:55 Cloudy 16 -9.1 11 -11.7 82 82 N 18 30 30.77 1042 10 16.0934 0 0
8:15 am 08:15 Cloudy 15 -9.2 10 -12 80 80 N 21 33 30.79 1043 10 16.0934 0 0
8:35 am 08:35 Cloudy 15 -9.3 10 -12.2 80 80 N 21 33 30.81 1043 10 16.0934 0 0
8:55 am 08:55 Cloudy 15 -9.6 9 -12.8 78 78 N 21 33 30.82 1044 10 16.0934 0 0
9:15 am 09:15 Cloudy with Light Snow 15 -9.7 9 -12.6 80 80 N 18 30 30.83 1044 3 4.82802 0 0
9:35 am 09:35 Mostly Cloudy 13 -10.5 7 -13.9 76 76 N 24 39 30.84 1044 10 16.0934 0 0
9:55 am 09:55 Partly Cloudy 13 -10.5 6 -14.5 73 73 NNW 22 35 30.84 1044 10 16.0934 0 0
10:15 am 10:15 Mostly Cloudy 14 -9.9 7 -14 72 72 N 20 31 30.85 1045 10 16.0934 0 0
10:35 am 10:35 Cloudy 14 -10 7 -13.9 73 73 NNW 17 28 30.86 1045 10 16.0934 0 0
10:55 am 10:55 Cloudy 14 -9.8 7 -14 72 72 N 20 31 30.87 1045 10 16.0934 0 0
11:15 am 11:15 Mostly Cloudy 15 -9.3 7 -13.7 71 71 N 18 30 30.85 1045 10 16.0934 0 0
11:35 am 11:35 Partly Cloudy 16 -9 7 -14 67 67 N 21 33 30.85 1045 10 16.0934 0 0
11:55 am 11:55 Sunny 16 -8.9 6 -14.3 65 65 N 22 35 30.85 1045 10 16.0934 0 0
12:15 pm 12:15 Sunny 16 -9 6 -14.5 65 65 N 18 30 30.84 1044 10 16.0934 0 0
12:35 pm 12:35 Partly Cloudy 17 -8.6 7 -14.1 65 65 N 18 30 30.83 1044 10 16.0934 0 0
12:55 pm 12:55 Partly Cloudy 17 -8.6 6 -14.3 64 64 N 16 26 30.83 1044 10 16.0934 0 0
1:15 pm 13:15 Mostly Cloudy 17 -8.4 7 -13.9 65 65 N 13 20 30.81 1043 10 16.0934 0 0
1:35 pm 13:35 Mostly Cloudy 17 -8.3 7 -13.9 64 64 NNW 16 26 30.81 1043 10 16.0934 0 0
1:55 pm 13:55 Mostly Cloudy 18 -8 7 -13.7 64 64 N 13 20 30.81 1043 10 16.0934 0 0
2:15 pm 14:15 Cloudy 18 -8 8 -13.5 65 65 N 17 28 30.81 1043 10 16.0934 0 0
2:35 pm 14:35 Cloudy 19 -7 9 -12.9 63 63 NNW 14 22 30.79 1043 10 16.0934 0 0
2:55 pm 14:55 Mostly Cloudy 18 -8 8 -13.6 64 64 NNW 15 24 30.8 1043 10 16.0934 0 0
3:15 pm 15:15 Mostly Cloudy 19 -7.5 8 -13.2 64 64 NNW 14 22 30.79 1043 10 16.0934 0 0
3:35 pm 15:35 Mostly Cloudy 19 -7.5 8 -13.2 64 64 NNW 12 19 30.79 1043 10 16.0934 0 0
3:55 pm 15:55 Partly Cloudy 17 -8.1 7 -13.7 64 64 NNW 14 22 30.8 1043 10 16.0934 0 0
4:15 pm 16:15 Partly Cloudy 18 -7.9 8 -13.5 64 64 NNW 12 19 30.8 1043 10 16.0934 0 0
4:35 pm 16:35 Sunny 17 -8.1 8 -13.1 68 68 N 9 15 30.8 1043 10 16.0934 0 0
4:55 pm 16:55 Partly Cloudy 17 -8.5 8 -13.3 69 69 N 8 13 30.8 1043 10 16.0934 0 0
5:15 pm 17:15 Partly Cloudy 16 -8.9 8 -13.5 70 70 N 9 15 30.81 1043 10 16.0934 0 0
5:35 pm 17:35 Clear 15 -9.5 8 -13.6 72 72 N 8 13 30.81 1043 10 16.0934 0 0
5:55 pm 17:55 Clear 14 -10.2 7 -13.9 75 75 N 6 9 30.83 1044 10 16.0934 0 0
6:15 pm 18:15 Clear 12 -11.2 6 -14.6 76 76 NNW 5 7 30.84 1044 10 16.0934 0 0
6:35 pm 18:35 Clear 10 -12 5 -15 79 79 NNW 5 7 30.85 1045 10 16.0934 0 0
6:55 pm 18:55 Clear 9 -12.6 4 -15.3 80 80 NW 6 9 30.86 1045 10 16.0934 0 0
7:10 pm 19:10 Clear 8 -13.2 4 -15.7 82 82 NNW 6 9 30.87 1045 10 16.0934 0 0
7:35 pm 19:35 Clear 8 -13.4 4 -15.7 83 83 NW 5 7 30.86 1045 10 16.0934 0 0
7:55 pm 19:55 Clear 8 -13.6 4 -15.8 84 84 WNW 6 9 30.88 1046 10 16.0934 0 0
8:15 pm 20:15 Clear 6 -14.4 3 -16.2 86 86 NW 5 7 30.89 1046 10 16.0934 0 0
8:35 pm 20:35 Clear 6 -14.5 2 -16.5 85 85 NW 5 7 30.88 1046 10 16.0934 0 0
8:55 pm 20:55 Clear 6 -14.3 3 -16.1 86 86 NW 5 7 30.88 1046 10 16.0934 0 0
9:15 pm 21:15 Clear 6 -14.6 2 -16.4 86 86 Calm 30.87 1045 10 16.0934 0 0
9:35 pm 21:35 Clear 5 -15 2 -16.8 86 86 WNW 3 6 N/A 10 16.0934 0 0
9:50 pm 21:50 Clear 6 -14.7 2 -16.6 86 86 W 5 7 N/A 10 16.0934 0 0
10:15 pm 22:15 Clear 6 -14.4 3 -16.1 87 87 W 3 6 N/A 10 16.0934 0 0
10:35 pm 22:35 Clear 7 -13.7 4 -15.7 85 85 Calm N/A 10 16.0934 0 0
10:55 pm 22:55 Clear 6 -14.7 2 -16.5 86 86 Calm N/A 10 16.0934 0 0
11:15 pm 23:15 Clear 4 -15.3 1 -17.2 86 86 Calm N/A 10 16.0934 0 0
11:35 pm 23:35 Clear 4 -15.5 0 -17.8 83 83 Calm N/A 10 16.0934 0 0
11:55 pm 23:55 Clear 4 -15.7 1 -17.2 88 88 Calm N/A 10 16.0934 0 0

Powered by AerisWeather